Time,TemperatureF,DewpointF,PressureIn,WindDirection,WindDirectionDegrees,WindSpeedMPH,WindSpeedGustMPH,Humidity,HourlyPrecipIn,Conditions,Clouds,dailyrainin,SoftwareType,DateUTC
2013-08-10 00:12:00,64.8,54.0,29.86,NNW,340,1.0,6.0,68,0.00,,,0.00,weatherlink.com 1.10,2013-08-10 06:12:00,
2013-08-10 00:27:00,64.5,54.0,29.87,NNE,33,0.0,3.0,68,0.00,,,0.00,weatherlink.com 1.10,2013-08-10 06:27:00,
2013-08-10 00:42:00,63.9,54.0,29.86,NE,49,3.0,8.0,70,0.00,,,0.00,weatherlink.com 1.10,2013-08-10 06:42:00,
2013-08-10 00:57:00,63.9,54.0,29.85,WNW,300,3.0,8.0,69,0.00,,,0.00,weatherlink.com 1.10,2013-08-10 06:57:00,
2013-08-10 01:12:00,63.3,53.0,29.84,WNW,297,1.0,12.0,70,0.00,,,0.00,weatherlink.com 1.10,2013-08-10 07:12:00,
2013-08-10 01:27:00,62.9,53.0,29.84,SSE,149,2.0,9.0,71,0.00,,,0.00,weatherlink.com 1.10,2013-08-10 07:27:00,
2013-08-10 01:42:00,62.4,54.0,29.84,South,180,0.0,8.0,74,0.00,,,0.00,weatherlink.com 1.10,2013-08-10 07:42:00,
2013-08-10 01:57:00,61.9,55.0,29.84,NNE,29,4.0,9.0,77,0.00,,,0.00,weatherlink.com 1.10,2013-08-10 07:57:00,
2013-08-10 02:12:00,61.7,54.0,29.84,SW,215,3.0,13.0,77,0.00,,,0.00,weatherlink.com 1.10,2013-08-10 08:12:00,
2013-08-10 02:27:00,61.1,55.0,29.84,SSE,158,0.0,9.0,79,0.00,,,0.00,weatherlink.com 1.10,2013-08-10 08:27:00,
2013-08-10 02:43:00,60.5,55.0,29.84,ENE,72,0.0,6.0,81,0.00,,,0.00,weatherlink.com 1.10,2013-08-10 08:43:00,
2013-08-10 02:58:00,59.2,54.0,29.84,SE,146,0.0,2.0,83,0.00,,,0.00,weatherlink.com 1.10,2013-08-10 08:58:00,
2013-08-10 03:13:00,58.3,54.0,29.84,SE,144,0.0,0.0,85,0.00,,,0.00,weatherlink.com 1.10,2013-08-10 09:13:00,
2013-08-10 03:28:00,57.9,54.0,29.83,SSE,166,0.0,1.0,85,0.00,,,0.00,weatherlink.com 1.10,2013-08-10 09:28:00,
2013-08-10 03:43:00,58.3,53.0,29.83,SSW,197,0.0,0.0,83,0.00,,,0.00,weatherlink.com 1.10,2013-08-10 09:43:00,
2013-08-10 03:58:00,58.2,53.0,29.83,SSW,193,0.0,1.0,82,0.00,,,0.00,weatherlink.com 1.10,2013-08-10 09:58:00,
2013-08-10 04:13:00,57.4,53.0,29.83,SSW,208,0.0,2.0,84,0.00,,,0.00,weatherlink.com 1.10,2013-08-10 10:13:00,
2013-08-10 04:28:00,56.6,52.0,29.83,SSW,205,0.0,0.0,85,0.00,,,0.00,weatherlink.com 1.10,2013-08-10 10:28:00,
2013-08-10 04:43:00,56.3,52.0,29.83,SW,233,0.0,0.0,86,0.00,,,0.00,weatherlink.com 1.10,2013-08-10 10:43:00,
2013-08-10 04:58:00,55.9,52.0,29.83,SW,233,0.0,0.0,86,0.00,,,0.00,weatherlink.com 1.10,2013-08-10 10:58:00,
2013-08-10 05:13:00,55.0,52.0,29.82,SW,233,0.0,0.0,89,0.00,,,0.00,weatherlink.com 1.10,2013-08-10 11:13:00,
2013-08-10 05:28:00,54.1,50.0,29.83,SW,233,0.0,0.0,87,0.00,,,0.00,weatherlink.com 1.10,2013-08-10 11:28:00,
2013-08-10 05:43:00,-999.0,-99.9,29.83,North,-999,-999.0,-999.0,-999,0.00,,,0.00,weatherlink.com 1.10,2013-08-10 11:43:00,
2013-08-10 05:58:00,-999.0,-99.9,29.82,North,-999,-999.0,-999.0,-999,0.00,,,0.00,weatherlink.com 1.10,2013-08-10 11:58:00,
2013-08-10 06:13:00,-999.0,-99.9,29.83,North,-999,-999.0,-999.0,-999,0.00,,,0.00,weatherlink.com 1.10,2013-08-10 12:13:00,
2013-08-10 06:28:00,-999.0,-99.9,29.83,North,-999,-999.0,-999.0,-999,0.00,,,0.00,weatherlink.com 1.10,2013-08-10 12:28:00,
2013-08-10 06:43:00,55.1,-99.9,29.84,WNW,285,0.0,0.0,-999,0.00,,,0.00,weatherlink.com 1.10,2013-08-10 12:43:00,
2013-08-10 06:58:00,53.6,51.0,29.84,West,264,0.0,0.0,91,0.00,,,0.00,weatherlink.com 1.10,2013-08-10 12:58:00,
2013-08-10 07:13:00,55.2,52.0,29.84,SW,222,0.0,1.0,90,0.00,,,0.00,weatherlink.com 1.10,2013-08-10 13:13:00,
2013-08-10 07:28:00,58.2,54.0,29.83,SSE,154,0.0,1.0,85,0.00,,,0.00,weatherlink.com 1.10,2013-08-10 13:28:00,
2013-08-10 07:43:00,61.1,55.0,29.84,North,359,0.0,1.0,81,0.00,,,0.00,weatherlink.com 1.10,2013-08-10 13:43:00,
2013-08-10 07:58:00,62.5,56.0,29.84,SSW,204,0.0,2.0,78,0.00,,,0.00,weatherlink.com 1.10,2013-08-10 13:58:00,
2013-08-10 08:13:00,63.8,56.0,29.83,SSE,162,2.0,2.0,75,0.00,,,0.00,weatherlink.com 1.10,2013-08-10 14:13:00,
2013-08-10 08:30:00,66.0,56.0,29.83,SSE,165,0.0,2.0,70,0.00,,,0.00,weatherlink.com 1.10,2013-08-10 14:30:00,
2013-08-10 08:44:00,67.5,56.0,29.83,SSE,148,0.0,3.0,67,0.00,,,0.00,weatherlink.com 1.10,2013-08-10 14:44:00,
2013-08-10 08:59:00,68.8,56.0,29.83,SE,145,0.0,3.0,64,0.00,,,0.00,weatherlink.com 1.10,2013-08-10 14:59:00,
2013-08-10 09:14:00,70.8,57.0,29.82,East,87,2.0,3.0,61,0.00,,,0.00,weatherlink.com 1.10,2013-08-10 15:14:00,
2013-08-10 09:29:00,72.7,56.0,29.82,NW,311,2.0,2.0,57,0.00,,,0.00,weatherlink.com 1.10,2013-08-10 15:29:00,
2013-08-10 09:44:00,73.0,55.0,29.82,SSE,153,0.0,2.0,54,0.00,,,0.00,weatherlink.com 1.10,2013-08-10 15:44:00,
2013-08-10 09:59:00,74.1,56.0,29.83,SSW,193,0.0,2.0,53,0.00,,,0.00,weatherlink.com 1.10,2013-08-10 15:59:00,
2013-08-10 10:14:00,76.5,56.0,29.82,SE,143,2.0,4.0,50,0.00,,,0.00,weatherlink.com 1.10,2013-08-10 16:14:00,
2013-08-10 10:29:00,78.1,56.0,29.82,SSE,166,0.0,4.0,47,0.00,,,0.00,weatherlink.com 1.10,2013-08-10 16:29:00,
2013-08-10 10:44:00,79.7,56.0,29.82,West,264,0.0,4.0,45,0.00,,,0.00,weatherlink.com 1.10,2013-08-10 16:44:00,
2013-08-10 10:59:00,81.0,56.0,29.81,SE,124,0.0,4.0,42,0.00,,,0.00,weatherlink.com 1.10,2013-08-10 16:59:00,
2013-08-10 11:14:00,82.9,56.0,29.80,South,190,0.0,4.0,40,0.00,,,0.00,weatherlink.com 1.10,2013-08-10 17:14:00,
2013-08-10 11:29:00,83.2,56.0,29.81,SW,215,0.0,4.0,39,0.00,,,0.00,weatherlink.com 1.10,2013-08-10 17:29:00,
2013-08-10 11:44:00,85.5,56.0,29.80,SE,139,0.0,3.0,36,0.00,,,0.00,weatherlink.com 1.10,2013-08-10 17:44:00,
2013-08-10 11:59:00,86.1,54.0,29.79,SSW,207,0.0,4.0,33,0.00,,,0.00,weatherlink.com 1.10,2013-08-10 17:59:00,
2013-08-10 12:14:00,87.5,54.0,29.78,South,169,0.0,2.0,32,0.00,,,0.00,weatherlink.com 1.10,2013-08-10 18:14:00,
2013-08-10 12:29:00,89.5,54.0,29.78,South,188,0.0,5.0,30,0.00,,,0.00,weatherlink.com 1.10,2013-08-10 18:29:00,
2013-08-10 12:44:00,89.6,53.0,29.77,NE,43,1.0,3.0,29,0.00,,,0.00,weatherlink.com 1.10,2013-08-10 18:44:00,
2013-08-10 12:59:00,91.6,53.0,29.77,South,177,2.0,3.0,27,0.00,,,0.00,weatherlink.com 1.10,2013-08-10 18:59:00,
2013-08-10 13:15:00,91.2,52.0,29.77,South,186,3.0,4.0,26,0.00,,,0.00,weatherlink.com 1.10,2013-08-10 19:15:00,
2013-08-10 13:30:00,93.8,51.0,29.76,SW,225,0.0,4.0,23,0.00,,,0.00,weatherlink.com 1.10,2013-08-10 19:30:00,
2013-08-10 13:45:00,95.0,51.0,29.75,SE,133,2.0,5.0,22,0.00,,,0.00,weatherlink.com 1.10,2013-08-10 19:45:00,
2013-08-10 14:00:00,94.2,49.0,29.75,WNW,301,3.0,5.0,21,0.00,,,0.00,weatherlink.com 1.10,2013-08-10 20:00:00,
2013-08-10 14:15:00,92.5,47.0,29.74,NW,311,0.0,1.0,21,0.00,,,0.00,weatherlink.com 1.10,2013-08-10 20:15:00,
2013-08-10 14:30:00,95.2,45.0,29.74,NW,315,0.0,2.0,18,0.00,,,0.00,weatherlink.com 1.10,2013-08-10 20:30:00,
2013-08-10 14:45:00,93.7,48.0,29.73,SE,140,0.0,3.0,21,0.00,,,0.00,weatherlink.com 1.10,2013-08-10 20:45:00,
2013-08-10 15:00:00,97.7,46.0,29.72,SSE,162,4.0,5.0,17,0.00,,,0.00,weatherlink.com 1.10,2013-08-10 21:00:00,
2013-08-10 15:15:00,95.3,46.0,29.71,SSE,150,0.0,6.0,18,0.00,,,0.00,weatherlink.com 1.10,2013-08-10 21:15:00,
2013-08-10 15:30:00,96.9,45.0,29.70,South,181,0.0,5.0,17,0.00,,,0.00,weatherlink.com 1.10,2013-08-10 21:30:00,
2013-08-10 15:45:00,94.3,43.0,29.71,SSE,150,2.0,4.0,17,0.00,,,0.00,weatherlink.com 1.10,2013-08-10 21:45:00,
2013-08-10 16:00:00,93.7,43.0,29.70,SSE,160,0.0,2.0,17,0.00,,,0.00,weatherlink.com 1.10,2013-08-10 22:00:00,
2013-08-10 16:15:00,95.6,44.0,29.70,NNW,327,0.0,5.0,17,0.00,,,0.00,weatherlink.com 1.10,2013-08-10 22:15:00,
2013-08-10 16:30:00,95.1,41.0,29.70,North,1,0.0,4.0,15,0.00,,,0.00,weatherlink.com 1.10,2013-08-10 22:30:00,
2013-08-10 16:45:00,90.8,43.0,29.70,NNW,339,1.0,4.0,19,0.00,,,0.00,weatherlink.com 1.10,2013-08-10 22:45:00,
2013-08-10 17:00:00,89.5,45.0,29.68,SSE,165,0.0,3.0,21,0.00,,,0.00,weatherlink.com 1.10,2013-08-10 23:00:00,
2013-08-10 17:15:00,86.4,48.0,29.68,South,170,1.0,8.0,26,0.00,,,0.00,weatherlink.com 1.10,2013-08-10 23:15:00,
2013-08-10 17:30:00,84.2,49.0,29.69,South,181,2.0,4.0,29,0.00,,,0.00,weatherlink.com 1.10,2013-08-10 23:30:00,
2013-08-10 17:45:00,83.6,45.0,29.68,NW,314,0.0,7.0,26,0.00,,,0.00,weatherlink.com 1.10,2013-08-10 23:45:00,
2013-08-10 18:00:00,73.1,54.0,29.74,West,276,9.0,28.0,52,0.03,,,0.03,weatherlink.com 1.10,2013-08-11 00:00:00,
2013-08-10 18:15:00,66.8,55.0,29.74,West,273,6.0,10.0,66,0.07,,,0.07,weatherlink.com 1.10,2013-08-11 00:15:00,
2013-08-10 18:30:00,69.1,59.0,29.74,WNW,303,2.0,9.0,69,0.07,,,0.07,weatherlink.com 1.10,2013-08-11 00:30:00,
2013-08-10 18:45:00,74.4,60.0,29.71,South,177,3.0,7.0,61,0.07,,,0.07,weatherlink.com 1.10,2013-08-11 00:45:00,
2013-08-10 19:00:00,72.4,58.0,29.71,SSE,162,3.0,7.0,60,0.04,,,0.07,weatherlink.com 1.10,2013-08-11 01:00:00,
2013-08-10 19:15:00,70.0,56.0,29.71,SSE,165,0.0,7.0,62,0.00,,,0.07,weatherlink.com 1.10,2013-08-11 01:15:00,
2013-08-10 19:30:00,69.1,56.0,29.72,East,93,0.0,4.0,64,0.00,,,0.07,weatherlink.com 1.10,2013-08-11 01:30:00,
2013-08-10 19:45:00,68.8,56.0,29.72,NE,43,0.0,0.0,65,0.00,,,0.07,weatherlink.com 1.10,2013-08-11 01:45:00,
2013-08-10 20:00:00,68.4,56.0,29.72,NE,41,0.0,0.0,65,0.00,,,0.07,weatherlink.com 1.10,2013-08-11 02:00:00,
2013-08-10 20:15:00,68.5,56.0,29.73,SW,229,0.0,0.0,65,0.00,,,0.07,weatherlink.com 1.10,2013-08-11 02:15:00,
2013-08-10 20:30:00,70.1,54.0,29.74,SSE,158,0.0,0.0,58,0.00,,,0.07,weatherlink.com 1.10,2013-08-11 02:30:00,
2013-08-10 20:45:00,69.1,56.0,29.75,SW,223,0.0,0.0,63,0.00,,,0.07,weatherlink.com 1.10,2013-08-11 02:45:00,
2013-08-10 21:15:00,69.8,54.0,29.75,West,262,0.0,0.0,57,0.00,,,0.07,weatherlink.com 1.10,2013-08-11 03:15:00,
2013-08-10 21:30:00,68.1,56.0,29.75,West,259,0.0,0.0,66,0.00,,,0.07,weatherlink.com 1.10,2013-08-11 03:30:00,
2013-08-10 21:45:00,67.5,56.0,29.74,SSW,211,0.0,0.0,67,0.00,,,0.07,weatherlink.com 1.10,2013-08-11 03:45:00,
2013-08-10 22:00:00,66.4,55.0,29.75,South,169,0.0,0.0,68,0.00,,,0.07,weatherlink.com 1.10,2013-08-11 04:00:00,
2013-08-10 22:15:00,65.1,56.0,29.75,SE,145,0.0,0.0,72,0.00,,,0.07,weatherlink.com 1.10,2013-08-11 04:15:00,
2013-08-10 22:30:00,63.7,55.0,29.76,SE,139,0.0,0.0,74,0.00,,,0.07,weatherlink.com 1.10,2013-08-11 04:30:00,
2013-08-10 22:45:00,64.0,55.0,29.77,SE,129,0.0,0.0,72,0.00,,,0.07,weatherlink.com 1.10,2013-08-11 04:45:00,
2013-08-10 23:00:00,64.8,55.0,29.78,SW,217,0.0,0.0,71,0.00,,,0.07,weatherlink.com 1.10,2013-08-11 05:00:00,
2013-08-10 23:15:00,65.0,55.0,29.78,SSE,162,3.0,5.0,70,0.00,,,0.07,weatherlink.com 1.10,2013-08-11 05:15:00,
2013-08-10 23:45:00,66.2,55.0,29.79,NE,40,5.0,13.0,68,0.00,,,0.07,weatherlink.com 1.10,2013-08-11 05:45:00,